カタログに戻る

SL-12 R/B(2)

運用中GEO
NORAD 22883·ROCKET BODY·🇷🇺 Russia

打ち上げ Oct 28, 1993 から Baikonur Cosmodrome

Loading…

TLE

最新Source: Space-Track

元期: Aug 29, 2026, 04:08 UTC

1 22883U 93069D   26241.17232949 -.00000260  00000-0  00000+0 0  9990
2 22883  13.8260 346.1437 0002850  47.4020 324.5122  1.00477696119803

AllMySatでSL-12 R/B(2)をリアルタイム追跡

Download on the App Store